Tracking 26443 objects as of 4-Dec-2022
HD Live streaming from Space Station
objects crossing your sky now

COSMOS 1408 DEB

Track COSMOS 1408 DEB now!
10-day predictions


NORAD ID: 50349
Int'l Code: 1982-092ABK
Perigee: 445.5 km
Apogee: 494.2 km
Inclination: 82.7 °
Period: 93.8 minutes
Semi major axis: 6840 km
RCS: Unknown
Launch date: September 16, 1982
Source: Commonwealth of Independent States (former USSR) (CIS)
Launch site: PLESETSK MISSILE AND SPACE COMPLEX (PKMTR)

Note: This is SATELLITE DEBRIS
aabbcc
Your satellite tracking list
Your tracking list is empty




NASA's NSSDC Master Catalog

Two Line Element Set (TLE):
1 50349U 82092ABK 22337.84527736  .00014144  00000-0  41483-3 0  9998
2 50349  82.6873 106.4672 0035582 161.6307 198.6230 15.34394694 54387
Source of the keplerian elements: AFSPC